Погода в Большом Фролово

Россия / Республика Татарстан     55°03′05″N   48°24′39″E
темп.,
°C
ветер,
м/с
пор.,
м/с
влажн.,
%
обл.,
%
осадки,
мм/ч
давл.,
гПа
погр.,
м
15 апреля, чт
чт1500:00+11ююв33845 0.0 102223
03:00+9ююв33875 0.0 102222
06:00+9юв22850 0.0 102128
09:00+15ююв35620 0.0 1020358
12:00+18ю45470 0.0 1019861
15:00+19ююз34430 0.0 10191135
18:00+16ююз11540 0.0 101811
21:00+13св11590 0.0 101911
16 апреля, пт
пт1600:00+12св22650 0.0 101910
03:00+9св488546 0.0 1020142
06:00+8св5996100 0.0 1021328
09:00+9всв7984100 0.0 1022507
12:00+12всв777050 0.0 1023660
15:00+14всв776115 0.0 1023954
18:00+12св610685 0.0 1023566
21:00+8св612695 0.0 1024372
17 апреля, сб
сб1700:00+7св512715 0.0 1025325
03:00+5всв612799 0.0 1025303
06:00+5всв5127316 0.0 1026337
09:00+8всв7105678 0.0 1027454
12:00+11всв79435 0.0 1026819
15:00+12всв78370 0.0 1026931
18:00+10всв59420 0.0 1026357
21:00+6всв49550 0.0 1026154
18 апреля, вс
вс1800:00+5св49670 0.0 1025168
03:00+3всв36720 0.0 1025115
06:00+4св510700 0.0 1025240
09:00+9всв68500 0.0 1025888
12:00+11всв67420 0.0 10241236
15:00+12всв67395 0.0 10241580
18:00+10всв4851100 0.0 1025399
21:00+6всв71369100 0.0 1026697
19 апреля, пн
пн1900:00+4всв7125681 0.0 1028526
03:00+2всв71256100 0.0 1029408
06:00+1всв7126497 0.0 1030429
09:00+4в81150100 0.0 1030916
12:00+6всв81036100 0.0 10301447
15:00+7всв81034100 0.0 10291611
18:00+5всв61143100 0.0 1029668
21:00+3всв61347100 0.0 1030496